Regional Weather Roundup
Issued by NWS

Home | Current Version | Previous Version | Text Only | Print | Product List | Glossary Off
Versions: 1 2 3 4 5 6 7 8 9 10 11 12 13 14 15 16 17 18 19 20 21 22 23 24 25 26 27 28 29 30 31 32 33 34 35 36 37 38 39 40 41 42 43 44 45 46 47 48 49 50

000
ASUS43 KLOT 230312
RWRIL

ILLINOIS REGIONAL WEATHER ROUNDUP
NATIONAL WEATHER SERVICE CHICAGO/ROMEOVILLE IL
900 PM CST SUN JAN 22 2017

NOTE: "FAIR" INDICATES FEW OR NO CLOUDS BELOW 12,000 FEET WITH NO
SIGNIFICANT WEATHER AND/OR OBSTRUCTIONS TO VISIBILITY.

* THESE STATIONS ARE NOT UNDER NWS QUALITY CONTROL. THEY ALSO MAY NOT
  REPORT WEATHER SUCH AS PRECIPITATION OR FOG.

ILZ001-002-007-009-015-016-024-230400-
NORTHWEST ILLINOIS

CITY           SKY/WX    TMP DP  RH WIND       PRES   REMARKS
MOLINE         CLOUDY    36  33  89 NW5       29.72R FOG     WCI  32
STERLING*      CLOUDY    38  36  92 N8        29.71R WCI  32
SAVANNA*       CLOUDY    38  36  93 N6        29.71R WCI  33
$$

ILZ003-004-008-010-011-017-018-230400-
NORTH CENTRAL ILLINOIS

CITY           SKY/WX    TMP DP  RH WIND       PRES   REMARKS
ROCKFORD       CLOUDY    37  35  92 N3        29.70R FOG
FREEPORT*      CLOUDY    37  36  96 N12       29.71R WCI  29
ROCHELLE*      CLOUDY    36  36  98 N3        29.69R FOG
DE KALB*       CLOUDY    37  36  96 NE6       29.68R FOG     WCI  32
PERU*          CLOUDY    37  34  88 NE9       29.71R WCI  31
$$

ILZ005-006-012>014-019>023-230400-
NORTHEAST ILLINOIS

CITY           SKY/WX    TMP DP  RH WIND       PRES   REMARKS
CHICAGO-OHARE  CLOUDY    40  38  93 NE5       29.67R
CHICAGO-MIDWAY CLOUDY    42  36  79 NE12      29.66S
AURORA         CLOUDY    38  36  92 N7        29.68R FOG     WCI  33
LANSING*       CLOUDY    40  38  95 NE7       29.66S
JOLIET*        CLOUDY    43  40  88 N5        29.66S
WAUKEGAN       CLOUDY    37  36  96 CALM      29.67R FOG
DUPAGE AIRPORT CLOUDY    38  35  89 N7        29.67R WCI  33
KANKAKEE*      CLOUDY    40  38  93 N6        29.66R
WHEELING       CLOUDY    40  37  89 N3        29.68R
MORRIS*        CLOUDY    38  37  93 N3        29.66S FOG
ROMEOVILLE*    CLOUDY    41  40  96 NE9G16    29.66S
NORTHERLY ISL    N/A     37  36  96 N8          N/A  WCI  31
$$

LMZ740>746-230400-
SOUTHERN LAKE MICHIGAN

STATION/POSITION SKY/WX   TEMP    WIND        PRES    VSBY  WAVE
                          AIR SEA DIR/SP/G                  HT/PER
                          (F)     (DEG/KT/KT) (MB)    (MI)  (FT/S)
HARRISON CRIB              35     340/  9/  9   N/A
BURNHAM HARBOR             36     360/  8/  9   N/A
CALUMET HARBOR             36     350/  7/  9 1004.2
BURNS HARBOR               35      30/  7/ 10 1005.4
MICHIGAN CITY              37      20/  8/ 10   N/A
$$

ILZ025>027-034>036-040-047-049-050-058-095>099-230400-
WEST-CENTRAL ILLINOIS

CITY           SKY/WX    TMP DP  RH WIND       PRES   REMARKS
QUINCY         CLOUDY    37  34  89 NW8       29.75R WCI  31
GALESBURG*     CLOUDY    37  37 100 NW6       29.72R FOG     WCI  32
MACOMB*        CLOUDY    35  35  97 NW8       29.75R FOG     WCI  29
JACKSONVILLE*  CLOUDY    38  36  92 NW8       29.71R FOG     WCI  32
PITTSFIELD*    CLOUDY    38  36  90 NW9       29.75R WCI  32
$$

ILZ028>032-037-038-041>044-048-051>054-059>061-230400-
CENTRAL ILLINOIS

CITY           SKY/WX    TMP DP  RH WIND       PRES   REMARKS
PONTIAC        CLOUDY    40  40  98 N7        29.68R
BLOOMINGTON    CLOUDY    38  36  92 N14       29.67R WCI  30
DECATUR        CLOUDY    41  39  93 N10       29.66R
PEORIA         CLOUDY    40  36  86 N5        29.70R
LACON*         CLOUDY    37  36  94 CALM      29.70R
LINCOLN*       CLOUDY    40  38  92 NW5       29.69R
SPRINGFIELD    CLOUDY    40  35  83 N10       29.70R
TAYLORVILLE    MOCLDY    40  37  88 N15       29.67R
$$

ILZ033-039-045-046-055>057-062-063-230400-
EAST-CENTRAL ILLINOIS

CITY           SKY/WX    TMP DP  RH WIND       PRES   REMARKS
CHAMPAIGN      CLOUDY    42  38  85 N16       29.63R
RANTOUL*       CLOUDY    42  40  93 N14       29.63R FOG
MATTOON        CLOUDY    44  41  89 N15       29.61R
PARIS*         CLOUDY    45  44  97 N10       29.61R FOG
$$

ILZ079-100>102-230400-
SOUTHWEST ILLINOIS

CITY           SKY/WX    TMP DP  RH WIND       PRES   REMARKS
ALTON          CLEAR     43  37  81 N14       29.70R
BELLEVILLE     CLOUDY    45  38  77 N18       29.65S
CAHOKIA*       CLOUDY    45  37  73 N20       29.69R
SPARTA*        CLOUDY    46  40  81 NW14G21   29.64R
$$

ILZ064>066-069>071-074>076-080>082-084>086-088>090-092>094-230400-
SOUTH-CENTRAL ILLINOIS

CITY           SKY/WX    TMP DP  RH WIND       PRES   REMARKS
CARBONDALE     LGT RAIN  49  47  93 N20G26    29.57R
CAIRO*         CLOUDY    53  49  87 N23G31    29.50R
EFFINGHAM*     CLOUDY    46  46  97 NW14      29.62S FOG
MARION         CLOUDY    52  52 100 N13G20    29.56R
MT. VERNON     CLOUDY    48  44  86 N10       29.59R
CENTRALIA*     CLOUDY    47  44  87 N17G24    29.60R
SALEM*         CLOUDY    47  42  81 N17       29.60S
METROPOLIS*    CLOUDY    55  51  85 N16G24    29.48R
$$

ILZ067-068-072-073-078-083-087-091-230400-
SOUTHEAST ILLINOIS

CITY           SKY/WX    TMP DP  RH WIND       PRES   REMARKS
LAWRENCEVILLE  PTCLDY    51  49  92 N18       29.52S
FLORA*         CLOUDY    49  46  88 N15G26    29.58S FOG
FAIRFIELD*     DRIZZLE   49  47  95 N12G18    29.54S
HARRISBURG*    CLOUDY    51  48  90 N15G25    29.52R
ROBINSON*      CLOUDY    49  47  93 N15       29.55F
CARMI*         PTCLDY    50  48  93 N20G25    29.50R
$$

ABBREVIATIONS USED IN REMARKS
   TC - TEMPERATURE IN CELSIUS
  WCI - WIND CHILL INDEX
   HX - HEAT INDEX
  VSB - VISIBILITY
$$





USA.gov is the U.S. government's official web portal to all federal, state and local government web resources and services.